Weather History for Monument Pass, CO

Change the Weather History Date:

Tuesday, October 8, 2013

  Actual Average (KAPA) Record (KAPA)
Temperature  
Mean Temperature 56 °F -  
Max Temperature 69 °F 66 °F 82 °F (2005)
Min Temperature 44 °F 37 °F 30 °F (2000)
Degree Days  
Heating Degree Days 8    
Growing Degree Days 6 (Base 50)    
Moisture  
Dew Point 24 °F    
Average Humidity 29    
Maximum Humidity 61    
Minimum Humidity 15    
Precipitation  
Precipitation 0.00 in - - ()
Sea Level Pressure  
Sea Level Pressure 29.95 in    
Wind  
Wind Speed 10 mph (SW)    
Max Wind Speed 17 mph    
Max Gust Speed -    
Visibility 10 miles    
Events      
Averages and records for this station are not official NWS values.
T = Trace of Precipitation, MM = Missing Value Source: NWS Daily Summary

Daily Weather History Graph

Daily Weather History Graph

Search for Another Location

Airport:

Trip Planner

Search our weather history database for the weather conditions in past years. The results will help you decide how hot, cold, wet, or windy it might be!

Date:

Astronomy

Oct. 08, 2013 Rise Set
Actual Time 7:01 AM MDT 6:29 PM MDT
Civil Twilight 6:34 AM MDT 6:56 PM MDT
Nautical Twilight 6:03 AM MDT 7:27 PM MDT
Astronomical Twilight 5:32 AM MDT 7:58 PM MDT
Moon 10:57 AM MDT (10/8) 9:10 PM MDT (10/8)
Length of Visible Light 12h 21m
Length of Day
11h 28m
Waxing Crescent, 16% of the Moon is Illuminated
Oct 8
Waxing Crescent
Oct 11
First Quarter
Oct 18
Full
Oct 26
Last Quarter
Nov 3
New

Hourly Weather History & Observations

Time (MDT) Temp. Windchill Dew Point Humidity Pressure Visibility Wind Dir Wind Speed Gust Speed Precip Events Conditions
12:12 AM 53.6 °F - 21.2 °F 28% 30.06 in 10.0 mi SSW 11.5 mph - N/A   Clear
12:33 AM 51.8 °F - 21.2 °F 30% 30.05 in 10.0 mi SSW 15.0 mph - N/A   Clear
12:52 AM 50.0 °F - 23.0 °F 35% 30.05 in 10.0 mi South 6.9 mph - N/A   Clear
1:13 AM 50.0 °F - 21.2 °F 32% 30.04 in 10.0 mi SW 10.4 mph - N/A   Clear
1:32 AM 50.0 °F - 23.0 °F 35% 30.03 in 10.0 mi SW 13.8 mph - N/A   Clear
1:53 AM 51.8 °F - 21.2 °F 30% 30.03 in 10.0 mi SW 12.7 mph - N/A   Clear
2:13 AM 51.8 °F - 23.0 °F 33% 30.03 in 10.0 mi WSW 15.0 mph - N/A   Clear
2:33 AM 55.4 °F - 23.0 °F 29% 30.02 in 10.0 mi WSW 13.8 mph - N/A   Clear
2:53 AM 57.2 °F - 21.2 °F 25% 30.02 in 10.0 mi SW 12.7 mph - N/A   Clear
3:13 AM 57.2 °F - 21.2 °F 25% 30.01 in 10.0 mi SW 6.9 mph - N/A   Clear
3:33 AM 53.6 °F - 21.2 °F 28% 30.01 in 10.0 mi SW 9.2 mph - N/A   Clear
3:53 AM 51.8 °F - 23.0 °F 33% 30.00 in 10.0 mi WSW 11.5 mph - N/A   Clear
4:13 AM 53.6 °F - 23.0 °F 30% 30.01 in 10.0 mi WSW 10.4 mph - N/A   Clear
4:33 AM 50.0 °F - 23.0 °F 35% 30.00 in 10.0 mi West 11.5 mph - N/A   Clear
4:53 AM 53.6 °F - 21.2 °F 28% 30.00 in 10.0 mi WSW 11.5 mph - N/A   Clear
5:13 AM 53.6 °F - 21.2 °F 28% 30.00 in 10.0 mi SW 9.2 mph - N/A   Clear
5:33 AM 57.2 °F - 21.2 °F 25% 30.00 in 10.0 mi SW 10.4 mph - N/A   Clear
5:51 AM 55.4 °F - 21.2 °F 26% 30.00 in 10.0 mi WSW 11.5 mph - N/A   Clear
6:12 AM 51.8 °F - 21.2 °F 30% 30.00 in 10.0 mi SW 6.9 mph - N/A   Clear
6:32 AM 51.8 °F - 19.4 °F 28% 29.99 in 10.0 mi SW 4.6 mph - N/A   Clear
6:53 AM 50.0 °F - 21.2 °F 32% 30.00 in 10.0 mi West 5.8 mph - N/A   Clear
7:12 AM 53.6 °F - 21.2 °F 28% 30.00 in 10.0 mi West 4.6 mph - N/A   Clear
7:32 AM 51.8 °F - 23.0 °F 33% 29.99 in 10.0 mi WSW 9.2 mph - N/A   Clear
7:53 AM 53.6 °F - 23.0 °F 30% 29.99 in 10.0 mi West 9.2 mph - N/A   Clear
8:11 AM 55.4 °F - 23.0 °F 29% 29.99 in 10.0 mi WSW 9.2 mph - N/A   Clear
8:31 AM 55.4 °F - 21.2 °F 26% 29.99 in 10.0 mi WSW 10.4 mph - N/A   Clear
8:52 AM 55.4 °F - 23.0 °F 29% 29.99 in 10.0 mi WSW 11.5 mph - N/A   Clear
9:12 AM 59.0 °F - 23.0 °F 25% 29.99 in 10.0 mi WSW 10.4 mph - N/A   Clear
9:32 AM 62.6 °F - 24.8 °F 24% 29.99 in 10.0 mi West 8.1 mph - N/A   Clear
9:52 AM 66.2 °F - 21.2 °F 18% 29.98 in 10.0 mi West 10.4 mph - N/A   Clear
10:13 AM 68.0 °F - 21.2 °F 17% 29.97 in 10.0 mi West 11.5 mph - N/A   Clear
10:32 AM 64.4 °F - 19.4 °F 18% 29.97 in 10.0 mi WSW 10.4 mph - N/A   Clear
10:53 AM 68.0 °F - 19.4 °F 16% 29.97 in 10.0 mi WSW 4.6 mph - N/A   Clear
11:12 AM 68.0 °F - 21.2 °F 17% 29.97 in 10.0 mi West 5.8 mph - N/A   Clear
11:32 AM 66.2 °F - 23.0 °F 19% 29.97 in 10.0 mi West 9.2 mph - N/A   Clear
11:52 AM 64.4 °F - 26.6 °F 24% 29.97 in 10.0 mi West 10.4 mph - N/A   Clear
12:12 PM 66.2 °F - 26.6 °F 23% 29.96 in 10.0 mi West 8.1 mph - N/A   Clear
12:32 PM 69.8 °F - 21.2 °F 16% 29.95 in 10.0 mi WSW 10.4 mph - N/A   Clear
12:53 PM 68.0 °F - 19.4 °F 16% 29.94 in 10.0 mi West 8.1 mph - N/A   Clear
1:13 PM 68.0 °F - 21.2 °F 17% 29.93 in 10.0 mi WSW 8.1 mph - N/A   Clear
1:33 PM 69.8 °F - 19.4 °F 15% 29.92 in 10.0 mi SSE 6.9 mph - N/A   Clear
1:52 PM 69.8 °F - 23.0 °F 17% 29.92 in 10.0 mi SSE 10.4 mph - N/A   Clear
2:13 PM 68.0 °F - 26.6 °F 21% 29.91 in 10.0 mi SE 9.2 mph - N/A   Clear
2:33 PM 68.0 °F - 23.0 °F 18% 29.91 in 10.0 mi SE 6.9 mph - N/A   Clear
2:52 PM 68.0 °F - 21.2 °F 17% 29.91 in 10.0 mi SE 4.6 mph - N/A   Clear
3:12 PM 68.0 °F - 21.2 °F 17% 29.90 in 10.0 mi SSE 5.8 mph - N/A   Clear
3:33 PM 66.2 °F - 24.8 °F 21% 29.89 in 10.0 mi SE 9.2 mph - N/A   Clear
3:53 PM 64.4 °F - 26.6 °F 24% 29.89 in 10.0 mi SE 6.9 mph - N/A   Clear
4:12 PM 64.4 °F - 30.2 °F 28% 29.88 in 10.0 mi SE 6.9 mph - N/A   Clear
4:33 PM 69.8 °F - 26.6 °F 20% 29.87 in 10.0 mi SE 9.2 mph - N/A   Clear
4:52 PM 68.0 °F - 26.6 °F 21% 29.86 in 10.0 mi SE 11.5 mph - N/A   Clear
5:13 PM 68.0 °F - 23.0 °F 18% 29.86 in 10.0 mi South 11.5 mph - N/A   Clear
5:32 PM 66.2 °F - 21.2 °F 18% 29.86 in 10.0 mi South 17.3 mph - N/A   Clear
5:52 PM 62.6 °F - 23.0 °F 22% 29.86 in 10.0 mi South 10.4 mph - N/A   Clear
6:12 PM 60.8 °F - 23.0 °F 23% 29.87 in 10.0 mi South 11.5 mph - N/A   Clear
6:32 PM 55.4 °F - 23.0 °F 29% 29.87 in 10.0 mi South 11.5 mph - N/A   Clear
6:52 PM 51.8 °F - 23.0 °F 33% 29.87 in 10.0 mi South 10.4 mph - N/A   Clear
7:12 PM 51.8 °F - 23.0 °F 33% 29.88 in 10.0 mi South 11.5 mph - N/A   Clear
7:31 PM 50.0 °F - 21.2 °F 32% 29.89 in 10.0 mi SSW 8.1 mph - N/A   Clear
7:51 PM 50.0 °F - 23.0 °F 35% 29.90 in 10.0 mi West 6.9 mph - N/A   Clear
8:12 PM 53.6 °F - 21.2 °F 28% 29.90 in 10.0 mi WSW 9.2 mph - N/A   Clear
8:32 PM 50.0 °F - 23.0 °F 35% 29.90 in 10.0 mi West 10.4 mph - N/A   Clear
8:52 PM 50.0 °F - 26.6 °F 40% 29.91 in 10.0 mi WNW 9.2 mph - N/A   Clear
9:12 PM 51.8 °F - 28.4 °F 41% 29.91 in 10.0 mi West 10.4 mph - N/A   Clear
9:32 PM 50.0 °F - 30.2 °F 47% 29.91 in 10.0 mi West 10.4 mph - N/A   Clear
9:52 PM 48.2 °F - 30.2 °F 50% 29.91 in 10.0 mi West 12.7 mph - N/A   Clear
10:12 PM 48.2 °F - 32.0 °F 54% 29.91 in 10.0 mi West 11.5 mph - N/A   Clear
10:31 PM 46.4 °F 41.5 °F 32.0 °F 57% 29.92 in 10.0 mi West 10.4 mph - N/A   Clear
10:52 PM 48.2 °F - 32.0 °F 54% 29.92 in 10.0 mi West 9.2 mph - N/A   Clear
11:12 PM 46.4 °F 41.9 °F 32.0 °F 57% 29.92 in 10.0 mi West 9.2 mph - N/A   Clear
11:31 PM 44.6 °F 39.2 °F 32.0 °F 61% 29.92 in 10.0 mi WSW 10.4 mph - N/A   Clear
11:52 PM 44.6 °F 39.7 °F 32.0 °F 61% 29.92 in 10.0 mi West 9.2 mph - N/A   Clear